Other Public Products
Issued by NWS Grand Forks, ND

Home | Current Version | Previous Version | Graphics & Text | Print | Product List | Glossary On
Versions: 1 2 3 4 5 6 7 8 9 10 11 12 13 14 15 16 17 18 19 20 21 22 23 24 25 26 27 28 29 30 31 32 33 34 35 36 37 38 39 40 41 42 43 44 45 46 47 48 49 50
000
FPUS83 KFGF 272310
OPUFGF
PRAIRIE TO PINES WEATHER ROUNDUP
NATIONAL WEATHER SERVICE EASTERN NORTH DAKOTA/GRAND FORKS ND
600 PM CDT SUN JUL 27 2014

 **SATELLITE DATA USED TO AUGMENT SKY COVER AT AUTOMATED STATIONS**
 *****  WEATHER ACROSS EASTERN NORTH DAKOTA  *****

CITY           SKY/WX    TMP DP  RH WIND       PRES   REMARKS
GRAND FORKS    CLOUDY    68  57  68 N12       30.17R
GRAND FORKS AF CLOUDY    68  58  70 N13       30.19R
GRAND CITY NWS   N/A     66 N/A N/A MISG        N/A
BUXTON         NOT AVBL
DEVILS LAKE    CLOUDY    64  52  63 N12       30.22S
FARGO          CLOUDY    67  57  70 N16       30.16R
WAHPETON ARPT  CLOUDY    64  54  68 N13G22    30.16R
$$

 *****  WEATHER ACROSS CENTRAL AND WESTERN NORTH DAKOTA  *****

CITY           SKY/WX    TMP DP  RH WIND       PRES   REMARKS
JAMESTOWN      CLOUDY    66  54  65 N10       30.23R
BISMARCK       PTSUNNY   70  50  49 NW12G20   30.27F
MINOT          PTSUNNY   68  50  52 NW8       30.27S
MINOT AFB      MOSUNNY   68  51  54 NW8       30.27S
GARRISON         N/A     69  51  52 N10       30.28S
WILLISTON      MOSUNNY   75  51  43 NE8       30.29S
DICKINSON      MOSUNNY   71  50  47 N7        30.29R
HETTINGER      SUNNY     72  53  51 N9        30.29F
$$

 *****  OTHER OBSERVATIONS NORTHEAST NORTH DAKOTA  *****

CITY           SKY/WX    TMP DP  RH WIND       PRES   REMARKS
WALHALLA         N/A     68  54  60 N13         N/A
LANGDON        CLOUDY    64  52  63 N10       30.23R
CAVALIER       CLOUDY    68  54  60 N8        30.20R
GRAFTON        CLOUDY    66  54  63 N14       30.18S
CANDO          CLOUDY    64  54  68 N10       30.25S
FORT TOTTEN      N/A     64  54  69 N6        29.95S
ROLLA          CLOUDY    64  52  63 N10       30.27S
RUGBY          FAIR      63  54  72 N8        30.26S
 ***** THE ABOVE OBSERVATIONS ARE NON NWS ARE NOT QUALITY
        CONTROLLED AND MAY MIS-REPORT RAIN FOR SNOW...
$$

 *****  OTHER OBSERVATIONS SOUTHEAST NORTH DAKOTA *****

CITY           SKY/WX    TMP DP  RH WIND       PRES   REMARKS
COOPERSTOWN    NOT AVBL
VALLEY CITY    CLOUDY    66  55  68 NW17      30.21R
OAKES          NOT AVBL
GWINNER        CLOUDY    68  55  64 N15       30.20S
SHEYENNE NWR     N/A     70  53  54 N10       29.95
BUFFALO        NOT AVBL
WYNDMERE       NOT AVBL
 ***** THE ABOVE OBSERVATIONS ARE NON NWS ARE NOT QUALITY
       CONTROLLED AND MAY MIS-REPORT RAIN FOR SNOW...
$$

  *****  WEATHER ACROSS NORTHERN MINNESOTA  *****

CITY           SKY/WX    TMP DP  RH WIND       PRES   REMARKS
FLAG ISLAND    MOSUNNY   70  52  52 N9        30.12S
WARROAD        CLOUDY    68  54  60 NW6       30.15S
ROSEAU         PTSUNNY   66  57  72 N8        30.16R
HALLOCK        MOSUNNY   66  55  68 N8        30.18R
THF RVR FALLS  CLOUDY    64  55  72 N9        30.17R
HALSTAD          N/A     66  57  72 N13         N/A
FOSSTON        CLOUDY    63  57  82 N10       30.15S
BAUDETTE       MOSUNNY   70  52  52 N7        30.13R
WASKISH        CLOUDY    66  55  68 CALM      30.12S
CROOKSTON      CLOUDY    66  57  72 N13       30.18R
$$
  *****  WEATHER ACROSS CENTRAL AND WEST MINNESOTA  *****

CITY           SKY/WX    TMP DP  RH WIND       PRES   REMARKS
BEMIDJI        CLOUDY    64  56  74 N12G18    30.12R
PARK RAPIDS    PTSUNNY   64  60  87 NW13      30.10R
WADENA         PTSUNNY   63  61  94 N9        30.10R
DETROIT LAKES  PTSUNNY   64  59  82 N13G21    30.15R
MOORHEAD       CLOUDY    66  61  82 N16       30.16S
FERGUS FALLS   CLOUDY    66  55  68 N13G20    30.14R
ELBOW LAKE     CLOUDY    66  58  73 NW16G24   30.13R
MORRIS MN      MOSUNNY   70  57  64 NW20G25   30.12R
STAPLES        HVY RAIN  64  61  88 N5G28     30.09R
WHEATON        NOT AVBL
$$
  *****  WEATHER ELSEWHERE ACROSS MINNESOTA  *****

CITY           SKY/WX    TMP DP  RH WIND       PRES   REMARKS
DULUTH         PTSUNNY   60  55  83 CALM      30.06S
INTRNTL FALLS  SUNNY     70  51  51 N12       30.09R
ELY            SUNNY     66  48  52 N6        30.05S
CLOQUET        CLOUDY    59  55  88 CALM      30.07S
BRAINERD       MOSUNNY   69  56  62 NE13      30.07R
HIBBING        PTSUNNY   68  54  60 NW12      30.08R
ALEXANDRIA     PTSUNNY   70  59  68 NW16G24   30.12R
SAINT CLOUD    MOSUNNY   73  59  61 NE12G20   30.04R
MINNEAPOLIS    PTSUNNY   72  59  63 N20G26    30.00R
$$

  *****  WEATHER ACROSS SOUTH DAKOTA  *****

CITY           SKY/WX    TMP DP  RH WIND       PRES   REMARKS
SIOUX FALLS    CLOUDY    68  55  63 N17G26    30.16S
BROOKINGS      NOT AVBL
WATERTOWN      CLOUDY    63  59  87 NW15G26   30.18R
HURON          CLOUDY    69  54  58 N20G26    30.19S
SISSETON         N/A     67  58  72 N16       30.16S
ABERDEEN       CLOUDY    66  55  67 N13       30.21S
MITCHELL       MOSUNNY   72  57  59 N17G26    30.19R
PIERRE         MOSUNNY   78  53  41 N17       30.22R
MOBRIDGE       MOSUNNY   73  54  51 N15       30.23R
RAPID CITY     SUNNY     82  48  30 N12       30.27F
$$

  *****  SOME WEATHER IN NEARBY STATES *****

CITY           SKY/WX    TMP DP  RH WIND       PRES   REMARKS
GLASGOW MT     MOSUNNY   83  45  26 N10G20    30.23S
GREAT FALLS MT SUNNY     88  35  15 E7        30.21F
CHEYENNE WY    SUNNY     78  53  41 S10G20    30.38F
SCOTTSBLUFF NE SUNNY     86  52  30 MISG      30.27F
OMAHA NE       MOSUNNY   81  56  42 NW24G30   30.10R
DES MOINES IA  MOSUNNY   76  57  51 N21G30    30.03R
DAVENPORT IA   MOSUNNY   75  58  55 NW22G30   29.90S
CHICAGO IL     PTSUNNY   78  54  43 W25G36    29.77R
EAU CLAIRE WI  PTSUNNY   72  58  61 N16G26    29.95R
LA CROSSE WI   MOSUNNY   75  62  64 NW15      29.90R
$$

  *****  SOME NATIONAL WEATHER *****

CITY           SKY/WX    TMP DP  RH WIND       PRES   REMARKS
LA GUARDIA NY  PTSUNNY   85  68  56 S13       29.66F
RALEIGH NC     CLOUDY    84  71  65 SW9       29.80F
ATLANTA GA     PTSUNNY   88  71  57 SW12      29.95F HX  94
NEW ORLEANS LA MOSUNNY   91  73  55 W10       30.02F HX  99
OKLAHOMA CITY  PTSUNNY   92  64  39 NE20G29   30.05R HX  93
ALBUQUERQUE NM PTSUNNY   80  52  37 N24G33    30.21S
SALT LAKE CITY MOSUNNY   98  36  11 NW7       30.08F HX  93
LOS ANGELES CA PTSUNNY   74  64  71 W12       29.96F
BOISE ID       SUNNY     97  37  12 W7        30.03F HX  92
SEATTLE WA     MOSUNNY   82  54  37 N10       30.12F
$$

*** WEATHER ACROSS MANITOBA...SASKATCHEWAN AND ONTARIO ***
                ***ONTARIO***

CITY           SKY/WX    TMP DP  RH WIND       PRES   REMARKS
GERALDTON      MOSUNNY   63  46  55 N18       30.00R
THUNDER BAY    MOSUNNY   68  48  49 N12G20    30.00R
SIOUX LOOKOUT  PTSUNNY   66  52  59 N5        30.10S
TORONTO        PTSUNNY   81  59  47 SW6       29.62R
BIG TROUT LK   MOSUNNY   70  50  49 N8        30.04F
PICKLE LAKE    CLOUDY    68  46  45 N8        30.07R
DRYDEN         MOSUNNY   68  48  49 NE8       30.11R
KENORA         NOT AVBL
$$
                *** MANITOBA***

CITY           SKY/WX    TMP DP  RH WIND       PRES   REMARKS
BRANDON        PTSUNNY   66  52  59 N9        30.26S
DAUPHIN        PTSUNNY   72  52  49 N7        30.24F
ISLAND LAKE    MOSUNNY   73  50  43 N3        30.16S
PILOT MOUND      N/A     63  52  67 NW7         N/A
THE PAS        MOSUNNY   72  50  46 N3        30.25F
THOMPSON       PTSUNNY   79  50  36 N7        30.19F
WINNIPEG       MOSUNNY   68  52  56 N10       30.19S
LYNN LAKE      SUNNY     77  43  29 SW5       30.23F
GILLAM         CLOUDY    79  50  36 N9        30.12S
$$
                ***SASKATCHEWAN***

CITY           SKY/WX    TMP DP  RH WIND       PRES   REMARKS
ESTEVAN        PTSUNNY   66  55  68 N2        30.30S
KINDERSLEY     NOT AVBL
LLOYDMINSTER   PTSUNNY   72  59  64 SW5       30.23S
PRINCE ALBERT  MOSUNNY   66  54  63 S5        30.27F
REGINA         PTSUNNY   70  55  60 VRB5      30.28S
YORKTON        CLOUDY    66  52  59 NW6       30.28S


USA.gov is the U.S. government's official web portal to all federal, state and local government web resources and services.